Location: Hillern
(53.0557°N, 9.8577°E)
Time: 09:27:32
(UTC+00:00)

SL-16 R/B - Pass Details

Date: 19 May 2025
Orbit: 841 x 844 km, 71.0° (Epoch: 23 June)

Event Time Altitude Azimuth Distance (km) Brightness Sun altitude
Rises 22:40:14 0° 326° (NNW) 3,415 6.6 -16.5°
Reaches altitude 10° 22:42:42 10° 323° (NW) 2,476 5.6 -16.6°
Maximum altitude 22:48:17 61° 245° (WSW) 960 2.4 -16.7°
Enters shadow 22:51:17 27° 175° (S) 1,554 3.0 -16.7°
